Temp
73 77 77 76 79 84 82 85 81 76 72 71 73 71 70 68 66 64 63 64 65 64 64 62 62 61 65 66 66 66 66 63 59 63 67 67 66 66 66 65 66 65 66
72 78 76 78 77 75 73 74 70 70 69 69 68 66 66 61 63 61 61 60 59 58 59 60 59 62 61 61 64 61 63 63 61 58 62 66 66 67 65 63 63 65 63
71 77 72 66 65 64 64 64 65 66 65 64 65 60 58 57 55 56 57 57 57 58 60 58 57 58 56 58 60 60 62 62 63 61 62 67 67 66 62 62 60 60 64
72 68 65 63 62 62 62 64 63 64 62 59 57 54 53 52 53 54 55 55 57 57 57 55 55 54 53 54 57 56 57 57 59 62 62 63 63 62 61 56 54 57 57
65 63 62 60 60 59 59 58 57 58 56 54 53 52 50 50 52 53 53 54 55 56 56 57 56 55 55 51 56 54 54 56 58 58 58 58 57 53 50 51 50 51 52
61 59 59 58 58 56 53 53 53 53 53 52 51 50 49 50 49 52 55 56 57 57 56 59 59 56 56 54 52 51 50 54 53 53 54 50 50 49 49 47 45 42 38
57 56 55 55 54 54 53 52 52 51 51 50 49 51 50 48 47 49 52 57 56 55 55 56 59 58 52 56 54 57 54 49 48 54 50 49 47 48 46 44 43 41 40
54 53 53 52 51 52 52 50 50 50 49 47 48 49 48 50 47 48 51 55 55 54 55 56 55 52 47 48 56 59 61 61 59 59 56 55 54 51 47 45 43 42 43
53 52 51 51 50 51 50 49 50 48 48 47 50 51 50 49 47 48 53 57 56 54 52 50 54 50 41 42 56 55 57 56 57 52 49 47 45 44 45 45 41 37 36
50 51 51 51 50 50 50 50 50 51 51 54 50 50 49 50 43 44 53 60 57 57 55 51 42 45 41 41 53 53 52 54 55 60 62 56 50 52 48 45 42 36 36
50 49 49 49 48 48 49 49 49 49 51 49 50 52 52 52 47 43 44 61 61 61 60 57 53 42 41 41 41 53 51 49 56 61 61 59 56 52 49 47 45 39 37
47 46 46 47 48 47 47 48 48 47 47 49 50 52 52 51 47 43 43 44 52 59 56 55 53 42 42 42 48 42 43 49 61 60 59 54 51 52 47 47 47 47 43
45 44 45 46 46 47 47 46 46 47 49 54 56 54 53 54 51 43 44 46 47 55 57 48 45 44 42 48 44 43 49 59 58 57 56 51 50 50 48 50 48 47 46
43 44 45 45 46 46 47 48 50 54 58 58 57 54 54 54 54 54 54 53 45 54 47 57 53 50 47 48 59 59 59 58 57 56 55 51 50 48 45 47 44 44 44
42 43 44 45 46 45 43 50 58 56 58 59 58 59 56 51 45 43 50 57 57 49 47 62 61 60 59 59 59 59 59 57 55 56 54 48 46 45 44 46 44 43 40
42 43 43 44 45 46 45 42 39 41 41 41 42 48 46 40 39 40 40 41 42 41 57 58 57 57 57 57 57 57 57 54 54 55 53 48 44 43 42 45 45 42 39
40 41 42 44 44 46 49 48 47 43 39 38 38 38 39 39 39 39 39 39 44 51 58 57 56 56 56 56 57 56 55 54 54 53 51 46 45 44 43 42 42 42 41
42 42 43 44 48 50 52 51 51 49 46 45 41 43 38 39 40 41 43 44 58 56 58 56 55 56 56 56 56 56 55 53 52 51 48 46 45 44 43 42 42 41 40
42 44 47 52 53 51 53 54 54 51 49 48 49 47 44 40 43 44 47 59 58 57 57 56 56 56 55 56 56 57 55 51 49 49 48 45 46 47 45 44 44 39 38
45 44 49 53 55 55 56 54 53 52 53 54 54 54 55 52 57 57 59 59 58 58 58 57 56 56 56 55 55 56 55 52 48 47 46 47 48 47 46 45 45 41 38
46 51 45 57 58 58 57 56 56 57 57 57 56 52 34 59 57 57 57 57 57 57 57 57 57 56 56 55 54 54 53 50 48 46 48 48 51 49 50 47 47 45 39
50 56 58 59 59 59 59 59 59 58 57 55 56 55 39 59 58 57 57 56 57 57 57 57 56 56 55 54 52 51 50 48 48 46 47 50 52 52 52 48 47 48 42
52 56 58 58 59 50 58 61 59 58 57 57 58 59 59 58 57 57 56 57 57 56 56 56 55 55 54 53 53 50 47 45 47 47 46 50 52 52 53 49 47 47 45
52 56 57 58 59 61 60 59 59 53 59 60 59 58 58 57 56 56 57 57 57 56 56 55 54 52 51 51 50 50 47 42 47 46 49 53 52 52 52 51 49 48 47
53 57 57 61 61 60 59 60 60 61 61 60 59 58 58 57 56 56 56 57 56 55 54 54 54 53 50 48 47 46 37 33 41 35 48 54 53 51 53 51 49 49 48
54 58 59 61 61 61 61 60 60 60 59 59 58 58 57 57 57 56 56 56 55 54 54 54 52 51 49 47 43 36 33 34 38 35 48 54 52 51 52 51 49 49 48
MSLP
997.28 998.17 998.87 999.29 999.59 1000.14 1001.24 1002.02 1003.03 1004.50 1005.34 1007.54 1008.72 1009.55 1010.50 1011.21 1012.33 1012.87 1013.60 1013.84 1014.24 1015.16 1015.63 1016.07 1015.78 1015.58 1015.70 1015.35 1015.34 1015.04 1014.75 1014.50 1013.99 1013.28 1012.85 1012.65 1012.29 1012.03 1011.67 1011.69 1011.17 1010.46 1010.05
997.20 998.02 999.11 999.55 1000.33 1000.89 1002.55 1003.31 1004.44 1005.51 1006.86 1008.25 1009.47 1010.72 1011.65 1012.36 1012.87 1013.73 1014.51 1014.86 1015.31 1015.75 1015.22 1016.58 1016.35 1016.35 1016.47 1016.28 1015.89 1015.93 1015.14 1014.85 1014.33 1013.58 1013.29 1012.11 1011.75 1011.63 1011.93 1011.66 1011.15 1010.57 1010.21
996.95 997.63 999.27 1000.63 1001.56 1002.19 1004.24 1004.56 1005.65 1006.71 1008.26 1009.27 1010.27 1011.48 1012.73 1013.40 1014.39 1014.67 1015.31 1015.68 1016.11 1016.47 1016.04 1017.65 1017.37 1017.53 1017.35 1017.27 1016.87 1016.35 1015.57 1015.10 1014.49 1013.89 1012.99 1011.99 1011.76 1011.77 1011.90 1011.73 1011.54 1010.92 1010.03
997.43 997.51 1000.01 1001.37 1002.16 1003.75 1004.85 1005.75 1006.64 1007.75 1008.95 1010.57 1011.42 1012.20 1013.43 1014.09 1015.50 1015.67 1016.04 1016.81 1016.53 1016.93 1017.95 1018.32 1018.67 1018.56 1018.42 1018.18 1017.43 1017.04 1016.51 1015.81 1014.92 1014.02 1013.45 1012.63 1012.57 1012.48 1012.61 1012.37 1012.00 1011.24 1010.59
998.57 999.19 1001.13 1002.71 1003.91 1004.97 1005.52 1006.32 1007.89 1009.15 1010.36 1011.33 1011.72 1013.53 1014.52 1015.28 1015.69 1016.71 1016.71 1017.31 1016.73 1017.67 1018.47 1018.83 1019.16 1019.18 1018.87 1018.97 1018.13 1017.27 1016.90 1016.31 1015.51 1015.02 1014.37 1013.87 1013.92 1014.11 1013.72 1013.56 1013.20 1012.38 1011.29
999.61 1000.75 1001.66 1003.29 1005.20 1005.36 1006.15 1007.51 1009.37 1010.45 1011.12 1011.83 1013.12 1014.11 1014.56 1016.06 1016.42 1017.23 1017.12 1016.87 1017.40 1018.17 1018.59 1018.69 1019.01 1019.12 1019.06 1018.83 1018.02 1017.24 1017.01 1016.49 1016.35 1016.15 1015.91 1015.75 1015.60 1015.46 1015.13 1014.44 1014.31 1013.66 1012.62
1000.76 1002.27 1003.47 1004.86 1005.61 1006.83 1007.38 1008.37 1009.95 1010.99 1011.56 1012.59 1013.78 1014.60 1015.35 1016.76 1017.30 1016.80 1017.48 1017.37 1018.07 1018.72 1019.05 1019.35 1019.04 1019.49 1019.72 1018.86 1017.74 1016.81 1016.66 1016.77 1016.97 1016.71 1016.42 1016.45 1016.08 1015.87 1015.96 1015.10 1014.79 1014.50 1013.77
1001.89 1002.81 1003.87 1005.01 1006.34 1007.86 1007.88 1008.64 1010.33 1011.76 1012.27 1013.41 1014.29 1015.38 1015.57 1016.29 1017.01 1017.25 1017.72 1018.23 1018.90 1019.49 1019.83 1019.87 1019.89 1020.42 1020.33 1019.37 1017.73 1016.93 1016.45 1016.37 1016.50 1016.48 1015.99 1016.04 1016.45 1016.33 1016.29 1015.73 1015.01 1014.64 1014.01
1003.09 1004.33 1005.15 1005.63 1007.41 1008.22 1008.98 1009.87 1011.26 1012.07 1013.05 1014.03 1015.18 1016.03 1016.59 1017.52 1017.53 1017.51 1018.08 1018.49 1019.23 1019.89 1020.35 1020.71 1020.89 1021.05 1020.84 1019.46 1018.07 1017.39 1017.08 1016.93 1016.04 1015.77 1015.71 1015.93 1016.43 1016.63 1016.11 1015.82 1015.24 1014.55 1013.93
1004.64 1005.11 1006.08 1006.66 1007.23 1009.32 1010.30 1010.87 1011.91 1012.47 1013.31 1014.11 1015.97 1017.13 1017.56 1018.00 1018.67 1018.46 1018.10 1018.57 1019.08 1019.35 1019.98 1021.28 1021.88 1021.77 1021.43 1019.75 1018.79 1018.18 1017.86 1017.40 1016.59 1015.43 1015.22 1015.24 1015.97 1015.77 1015.74 1016.15 1015.74 1015.22 1014.66
1005.57 1006.57 1007.55 1008.18 1009.05 1010.47 1010.84 1011.64 1012.37 1013.25 1014.26 1015.72 1016.63 1017.35 1017.83 1018.67 1019.17 1018.81 1018.44 1018.57 1018.72 1018.79 1019.57 1020.56 1021.50 1022.03 1020.86 1019.71 1019.24 1018.93 1018.76 1017.93 1016.55 1015.39 1015.37 1015.39 1015.41 1016.12 1015.82 1016.21 1015.53 1015.49 1014.60
1007.82 1008.19 1009.08 1009.71 1010.24 1011.07 1011.55 1012.66 1013.38 1014.47 1015.49 1016.24 1017.24 1017.47 1018.46 1019.29 1019.87 1019.63 1019.50 1019.62 1019.51 1019.65 1020.14 1020.85 1021.17 1021.38 1020.90 1019.41 1019.01 1018.88 1018.34 1017.59 1016.66 1015.61 1015.46 1016.10 1016.00 1016.47 1016.28 1016.41 1015.36 1014.93 1014.24
1008.84 1009.38 1010.05 1010.71 1011.53 1012.06 1012.64 1013.65 1014.48 1015.46 1016.10 1016.30 1016.95 1017.66 1018.75 1019.95 1020.67 1020.67 1020.60 1020.57 1020.49 1020.78 1020.81 1020.95 1020.64 1019.98 1019.81 1019.56 1019.22 1018.37 1018.15 1018.12 1017.27 1015.99 1016.11 1016.83 1017.23 1017.12 1017.18 1015.98 1015.31 1015.07 1013.69
1010.21 1010.95 1011.41 1011.57 1012.32 1013.18 1014.04 1014.83 1015.36 1015.60 1015.90 1016.45 1017.22 1017.97 1019.07 1019.95 1020.45 1020.69 1021.08 1021.13 1020.97 1020.83 1020.79 1020.21 1020.04 1019.81 1019.61 1019.53 1018.95 1018.61 1018.42 1018.97 1017.80 1016.75 1017.02 1017.83 1018.60 1017.86 1017.25 1016.41 1015.71 1014.62 1013.73
1011.46 1011.79 1012.21 1012.75 1013.41 1014.22 1015.42 1015.45 1015.51 1016.57 1016.53 1016.86 1017.59 1018.18 1019.01 1020.50 1021.55 1021.30 1020.92 1021.32 1021.33 1021.19 1020.71 1019.70 1019.49 1019.55 1019.40 1019.45 1019.38 1018.87 1018.99 1019.45 1018.12 1017.59 1017.83 1018.96 1018.87 1018.47 1017.61 1016.74 1016.27 1015.15 1014.52
1012.22 1012.61 1013.14 1013.81 1014.76 1015.32 1016.24 1017.27 1018.45 1018.07 1018.28 1018.69 1019.19 1019.89 1021.17 1021.82 1021.95 1022.08 1022.19 1022.25 1022.03 1021.18 1020.25 1020.07 1020.14 1020.13 1019.89 1020.16 1019.80 1019.34 1019.83 1019.79 1018.78 1018.55 1019.11 1019.86 1019.34 1018.68 1018.09 1017.21 1016.75 1015.86 1015.23
1013.15 1013.97 1014.43 1014.80 1015.42 1016.26 1017.03 1017.51 1018.65 1020.20 1020.28 1020.49 1021.05 1021.60 1022.23 1022.61 1022.55 1022.61 1022.32 1022.35 1021.46 1020.73 1020.65 1020.93 1020.96 1020.85 1021.06 1020.64 1020.59 1020.19 1020.36 1020.31 1019.78 1019.81 1020.11 1020.29 1019.76 1019.12 1018.34 1017.81 1017.09 1016.33 1015.67
1014.13 1015.05 1015.13 1015.53 1015.99 1017.11 1017.56 1018.25 1019.15 1019.64 1020.43 1021.68 1022.60 1022.91 1023.11 1023.06 1022.88 1022.67 1022.27 1022.42 1021.41 1021.50 1021.56 1021.75 1021.51 1021.83 1021.48 1021.53 1021.47 1020.96 1021.02 1020.93 1021.00 1020.96 1020.85 1020.68 1020.12 1019.39 1018.73 1018.26 1017.55 1016.93 1016.41
1014.80 1015.48 1015.48 1015.97 1016.92 1017.45 1017.81 1018.30 1018.90 1019.85 1020.60 1021.37 1022.45 1023.19 1023.29 1022.81 1022.25 1022.02 1022.03 1021.95 1022.12 1022.09 1022.34 1022.45 1022.49 1022.33 1022.29 1022.53 1022.08 1021.61 1021.47 1021.80 1022.09 1021.86 1021.57 1021.23 1020.33 1019.63 1019.00 1018.63 1018.03 1017.58 1017.12
1015.42 1015.54 1015.72 1016.37 1016.89 1017.41 1017.70 1018.13 1018.98 1019.73 1020.07 1020.75 1021.56 1022.08 1022.41 1022.24 1022.08 1022.22 1022.48 1022.83 1022.83 1022.85 1023.07 1023.23 1023.16 1023.07 1023.33 1023.16 1022.86 1022.36 1022.17 1022.45 1022.73 1022.71 1022.19 1021.23 1020.50 1019.94 1019.22 1018.93 1018.45 1018.11 1017.76
1015.81 1015.93 1016.47 1016.48 1016.79 1017.48 1018.01 1018.49 1018.95 1019.42 1019.92 1020.39 1021.17 1021.91 1021.95 1021.97 1022.32 1022.84 1023.31 1023.60 1023.65 1023.89 1023.97 1023.70 1023.75 1023.88 1023.91 1023.92 1023.83 1023.51 1023.34 1023.51 1023.52 1023.25 1022.32 1021.37 1020.53 1019.99 1019.46 1019.45 1018.87 1018.30 1018.39
1016.39 1016.15 1016.26 1016.45 1017.06 1017.77 1018.18 1018.59 1018.97 1019.55 1020.39 1021.19 1021.87 1022.45 1022.45 1022.49 1023.03 1023.41 1023.83 1024.30 1024.51 1024.77 1024.81 1024.49 1024.52 1024.75 1024.89 1024.93 1024.79 1024.79 1024.69 1024.51 1024.11 1023.77 1022.84 1021.68 1020.93 1020.33 1019.83 1019.87 1019.38 1018.57 1018.75
1016.68 1016.53 1016.56 1016.88 1017.23 1017.97 1018.46 1018.66 1019.39 1020.25 1020.96 1021.52 1021.85 1022.17 1022.71 1023.28 1023.59 1023.97 1024.52 1024.87 1025.12 1025.45 1025.52 1025.49 1025.54 1025.79 1025.88 1025.91 1025.82 1026.07 1025.87 1025.74 1025.06 1024.31 1023.51 1022.05 1021.60 1021.04 1020.49 1020.33 1019.97 1019.17 1019.16
1016.86 1016.83 1017.06 1017.29 1017.71 1017.91 1018.54 1019.11 1020.00 1020.66 1020.88 1021.41 1022.07 1022.69 1023.25 1023.82 1024.23 1024.75 1025.11 1025.45 1025.67 1025.89 1026.10 1026.35 1026.66 1026.95 1027.10 1027.06 1027.08 1026.85 1026.93 1026.96 1025.86 1025.11 1023.91 1022.63 1022.29 1021.78 1021.31 1020.95 1020.58 1019.97 1019.66
1017.22 1017.01 1017.47 1017.39 1017.81 1018.18 1018.95 1019.66 1020.22 1020.51 1021.19 1021.90 1022.58 1023.30 1023.91 1024.47 1024.92 1025.20 1025.55 1025.91 1026.09 1026.32 1026.84 1027.21 1027.32 1027.59 1028.05 1028.27 1028.17 1028.03 1027.93 1027.28 1026.31 1025.94 1024.58 1023.33 1022.72 1022.72 1022.02 1021.84 1021.37 1020.78 1020.31
1017.54 1017.56 1017.55 1017.61 1018.21 1018.78 1019.23 1019.82 1020.39 1020.99 1021.69 1022.45 1023.14 1023.82 1024.41 1025.03 1025.41 1025.69 1026.06 1026.53 1026.59 1026.87 1027.25 1027.74 1028.26 1028.57 1028.77 1028.99 1029.25 1029.00 1028.37 1027.57 1026.67 1025.79 1024.77 1023.93 1023.47 1023.44 1022.92 1022.47 1022.23 1021.68 1021.17
Wind_Speed
15 17 16 13 12 13 11 11 14 16 18 15 15 16 16 16 13 13 11 9 13 10 8 6 7 7 7 7 7 7 7 7 9 10 9 11 10 9 10 12 13 12 10
12 17 15 14 12 12 10 14 17 16 16 15 15 16 16 14 13 13 12 10 10 6 11 8 8 6 7 8 7 7 7 8 8 12 10 10 9 8 11 12 11 12 12
14 17 14 13 14 18 15 17 18 19 18 17 17 16 15 14 11 12 11 11 10 8 10 6 9 9 8 8 8 8 8 8 8 9 10 10 10 11 12 11 13 13 12
15 13 16 15 16 16 16 16 18 19 20 17 15 16 15 15 11 10 10 9 10 11 9 9 7 9 9 8 7 8 9 9 9 9 10 11 11 13 12 13 14 13 14
13 14 15 15 14 16 16 18 16 16 15 15 18 15 14 12 10 9 10 8 11 9 7 6 8 8 8 3 6 7 8 9 9 10 10 11 12 13 13 12 12 14 15
16 18 16 18 15 16 17 20 17 17 18 19 18 15 16 9 13 10 7 9 10 6 7 4 6 10 8 3 8 7 4 7 10 8 10 12 13 13 12 12 12 11 9
16 17 17 17 17 16 19 20 19 18 18 18 16 18 17 11 11 14 9 9 9 7 5 6 6 9 11 9 13 5 10 9 3 8 11 12 11 10 10 13 13 11 11
15 15 16 18 17 15 18 19 18 16 17 16 15 14 14 11 12 14 14 10 8 9 8 7 8 9 12 12 10 9 10 8 6 7 7 8 9 10 9 10 10 12 11
17 16 16 19 17 16 17 19 18 18 17 16 15 16 15 11 10 13 9 10 10 10 11 11 8 10 12 15 11 12 11 10 4 11 11 7 5 7 6 7 9 9 9
12 15 15 17 20 16 16 18 16 16 18 15 15 11 13 10 9 7 2 8 9 7 10 9 11 8 11 13 12 12 11 12 12 13 11 4 3 5 8 7 7 8 9
14 13 15 16 18 16 17 16 17 17 17 15 14 12 13 10 10 12 13 8 6 6 6 7 6 4 8 10 12 10 11 12 13 11 10 11 10 10 11 9 7 6 6
14 16 17 16 14 14 18 16 17 16 14 14 13 13 11 11 9 13 15 11 8 7 8 6 3 7 8 8 8 11 14 12 10 10 11 12 10 12 10 10 12 10 5
15 16 16 17 15 16 17 16 13 13 10 11 11 12 11 9 8 10 10 11 12 8 6 3 6 10 10 5 13 13 10 11 11 11 12 11 11 10 12 13 12 13 11
16 16 15 17 18 15 11 10 10 9 10 11 11 11 10 9 8 8 7 6 6 6 8 4 2 4 6 7 9 10 11 11 11 12 12 12 12 11 10 11 12 11 10
15 15 16 15 15 12 10 4 9 10 8 11 11 10 10 9 6 8 10 7 5 4 8 7 9 9 9 10 10 11 11 11 12 12 13 12 12 10 12 11 11 9 10
15 12 11 11 10 11 13 15 24 24 26 25 21 14 12 11 10 11 8 5 5 8 6 8 9 9 10 10 10 11 11 13 13 12 12 11 11 10 11 11 10 10 10
16 13 10 11 11 11 12 13 15 18 26 24 22 20 16 11 9 6 6 9 10 5 10 9 9 10 9 10 10 10 11 12 14 12 12 11 10 10 12 11 11 11 12
18 18 9 10 11 11 12 12 11 12 12 12 11 10 9 7 4 1 5 5 9 11 10 9 10 9 10 10 10 10 11 12 12 12 11 11 10 10 11 11 11 13 12
12 10 11 12 11 11 10 11 11 12 11 12 11 9 5 4 3 5 7 10 9 9 9 9 9 9 10 9 10 10 12 12 11 12 11 10 10 10 10 11 11 13 14
10 11 12 12 10 10 9 11 11 11 12 11 10 9 7 5 9 10 10 9 9 9 9 9 9 9 9 10 10 11 11 12 12 11 10 10 9 10 10 11 12 11 12
10 10 9 9 11 10 10 10 10 10 11 10 10 9 8 10 10 10 9 9 9 9 9 9 9 9 10 10 11 11 12 11 11 10 10 11 10 11 10 11 11 9 10
8 11 10 10 9 12 12 11 11 12 11 11 11 8 5 10 9 9 9 9 9 9 8 9 9 10 10 10 11 12 12 11 12 11 12 11 12 12 10 11 12 10 11
6 9 10 9 10 9 10 12 12 12 12 12 11 9 10 9 9 10 9 9 9 8 9 10 10 10 10 10 11 11 11 11 11 11 12 10 12 12 12 11 11 12 12
4 9 10 10 10 11 12 12 12 12 12 11 10 10 10 9 10 10 9 8 9 9 9 9 10 13 12 11 10 10 10 10 10 12 16 12 12 13 13 13 12 15 12
5 8 10 12 12 12 13 13 12 12 12 11 11 10 10 10 9 9 9 8 8 9 11 10 9 12 14 16 16 17 14 14 13 11 11 14 16 18 14 13 14 12 16
2 9 9 10 11 11 12 12 12 12 12 11 10 10 10 9 9 9 9 8 9 9 10 9 11 15 15 14 16 13 14 15 15 17 10 12 13 13 12 14 19 13 16
Wind_Direction
185 185 184 182 179 156 162 169 125 115 113 122 127 123 119 114 108 99 87 97 93 82 65 45 53 38 12 12 350 4 333 355 316 336 320 337 313 342 340 341 328 330 336
181 177 182 165 115 107 99 111 111 115 110 120 111 112 111 106 105 101 103 87 86 79 66 39 41 38 11 18 345 357 350 330 325 321 337 318 345 333 354 328 352 338 336
174 171 160 126 121 102 111 108 109 111 111 113 119 112 102 92 93 93 84 89 82 62 71 46 39 25 30 14 353 350 353 343 329 328 320 334 335 14 336 350 341 339 336
161 122 129 128 111 115 118 116 117 120 120 118 112 104 99 100 90 95 95 92 91 74 63 55 41 45 28 10 0 0 5 347 339 341 335 344 347 5 345 352 338 340 339
120 125 115 108 116 127 122 110 110 115 110 106 104 95 97 97 100 102 100 112 96 92 84 98 60 36 31 346 347 16 8 360 356 350 342 345 343 347 348 343 335 334 335
117 114 113 119 132 113 107 109 109 111 106 101 99 105 97 98 101 121 107 98 106 104 80 71 91 40 8 289 256 245 276 8 10 355 346 344 338 339 341 336 336 337 328
114 115 118 122 119 127 118 117 118 112 110 108 106 108 107 105 112 102 116 89 83 84 69 35 33 40 7 349 333 326 211 212 262 338 348 338 329 338 330 332 337 325 312
105 107 111 110 111 119 121 112 113 117 110 112 113 122 120 114 106 95 94 106 98 75 63 53 45 27 11 346 318 11 7 27 12 334 330 339 345 350 334 323 316 321 303
117 120 121 114 122 118 116 119 119 114 112 104 108 108 106 110 109 122 133 118 114 108 74 45 40 35 352 341 24 16 12 12 299 249 245 255 282 297 305 324 333 333 321
108 105 118 112 110 116 121 118 118 114 112 110 108 110 105 110 49 39 109 128 130 113 129 106 64 27 325 351 19 17 12 356 329 336 2 67 197 39 35 4 330 324 326
91 98 100 104 108 115 110 107 107 106 106 113 113 111 104 97 55 42 26 129 130 112 98 77 57 310 324 325 340 18 332 318 311 1 5 20 14 7 3 345 337 309 315
98 102 102 105 107 105 104 103 101 106 109 112 117 110 98 85 58 52 48 39 23 85 77 72 79 266 283 308 347 320 308 320 359 7 14 16 11 354 359 329 347 330 315
96 97 99 100 102 102 102 103 105 109 128 128 118 110 110 104 89 68 59 60 56 84 94 144 251 280 271 268 244 278 339 10 359 12 19 21 6 358 348 341 351 345 341
102 107 108 103 101 101 99 107 120 133 129 122 120 117 122 131 133 138 141 137 139 145 198 180 65 318 275 288 21 23 28 9 4 13 22 26 358 349 350 349 344 345 349
99 102 100 99 101 88 58 89 94 61 108 128 125 127 121 96 65 54 55 65 54 25 307 56 48 38 35 30 25 24 28 5 13 14 26 13 358 345 352 355 345 347 356
100 93 93 98 95 93 89 80 61 67 66 65 67 83 79 98 98 77 71 30 319 292 74 53 48 38 36 26 20 23 20 11 16 12 27 7 352 351 347 353 350 356 353
88 80 91 93 99 103 106 101 97 72 70 68 73 72 69 90 74 56 17 324 30 77 61 56 45 39 31 27 20 20 17 20 17 8 27 359 353 350 355 354 351 355 353
105 111 106 108 108 113 111 112 115 110 105 97 66 85 95 104 113 264 305 281 76 64 57 51 50 38 32 27 15 19 26 26 16 9 22 353 352 355 357 357 355 358 354
111 119 123 112 117 122 127 116 110 107 107 109 112 112 136 152 102 14 87 67 67 64 59 54 46 42 34 27 14 19 31 33 17 12 11 346 352 357 2 360 356 4 357
117 105 105 121 129 122 117 111 112 123 121 117 120 121 136 176 87 77 70 68 66 58 56 55 51 43 36 25 19 20 27 28 22 15 353 345 3 356 4 3 358 12 2
116 121 129 143 133 125 126 125 128 124 123 113 89 61 23 94 89 80 75 65 63 57 53 52 48 43 35 29 23 20 21 22 22 359 353 349 8 2 7 8 358 22 10
129 140 138 134 123 137 134 131 128 114 106 111 110 96 349 95 96 90 83 76 72 62 50 48 52 43 37 28 29 19 17 17 13 1 345 352 8 4 10 13 2 9 21
151 146 133 141 129 118 132 124 117 120 122 128 134 119 101 98 94 89 85 80 74 70 61 52 46 44 35 34 30 28 19 15 357 356 333 1 12 2 11 18 6 3 27
149 138 145 122 152 139 126 126 122 129 132 120 112 108 101 95 93 90 87 83 79 70 62 64 58 49 40 32 29 25 22 7 343 353 336 7 23 1 15 17 13 9 26
167 139 142 151 147 130 128 129 139 134 123 120 115 113 108 103 100 96 90 86 82 81 70 58 46 51 48 39 29 18 3 346 344 342 337 19 28 11 14 22 16 16 28
83 150 154 148 130 138 136 139 132 128 123 119 116 114 112 110 102 97 94 91 86 78 75 66 59 47 44 37 23 4 354 349 349 344 341 22 14 31 4 32 19 21 25